CCA8310 ZGHZ-ZSPD

Flight info

Callsign CCA8310
Flight time N/A
Altitude 33100
Route LMN9 LMN G471 XEBUL H22 UPNUG W76 AREPI B221 SHZ W58 XSY
Aircraft A320/M-SDE3FGHIRWY/LB1

Departure

Time 2026-05-09 11:58
Airport Huizhou Pingtan Airport (ZGHZ)

Arrival

Time N/A
Airport Shanghai Pudong International Airport (ZSPD)
Time Latitude Longitude Altitude Speed Heading
2026-05-09 11:46 23.05185 114.60369 55 ft 0 kts 358°
2026-05-09 11:47 23.05165 114.60370 52 ft 4 kts 358°
2026-05-09 11:47 23.05139 114.60371 50 ft 3 kts 358°
2026-05-09 11:48 23.05117 114.60370 55 ft 4 kts 37°
2026-05-09 11:48 23.05108 114.60349 49 ft 4 kts 96°
2026-05-09 11:48 23.05111 114.60321 53 ft 2 kts 88°
2026-05-09 11:48 23.05111 114.60319 53 ft 1 kts 88°
2026-05-09 11:50 23.05111 114.60324 56 ft 2 kts 88°
2026-05-09 11:51 23.05112 114.60354 49 ft 6 kts 88°
2026-05-09 11:51 23.05088 114.60402 56 ft 9 kts 144°
2026-05-09 11:51 23.05011 114.60415 52 ft 13 kts 178°
2026-05-09 11:51 23.04969 114.60417 52 ft 0 kts 178°
2026-05-09 11:52 23.04967 114.60417 53 ft 1 kts 178°
2026-05-09 11:52 23.04953 114.60417 54 ft 3 kts 177°
2026-05-09 11:52 23.04929 114.60418 51 ft 4 kts 177°
2026-05-09 11:53 23.04900 114.60417 54 ft 4 kts 191°
2026-05-09 11:53 23.04873 114.60402 50 ft 4 kts 217°
2026-05-09 11:53 23.04866 114.60368 57 ft 5 kts 272°
2026-05-09 11:53 23.04866 114.60315 55 ft 10 kts 268°
2026-05-09 11:54 23.04862 114.60219 60 ft 16 kts 267°
2026-05-09 11:54 23.04857 114.60094 62 ft 17 kts 268°
2026-05-09 11:54 23.04852 114.59959 64 ft 19 kts 267°
2026-05-09 11:54 23.04846 114.59804 61 ft 23 kts 267°
2026-05-09 11:55 23.04838 114.59619 55 ft 25 kts 267°
2026-05-09 11:56 23.04836 114.58892 55 ft 7 kts 275°
2026-05-09 11:56 23.04809 114.58890 50 ft 5 kts 103°
2026-05-09 11:56 23.04810 114.58896 51 ft 0 kts 88°
2026-05-09 11:57 23.04811 114.58923 47 ft 19 kts 88°
2026-05-09 11:57 23.04828 114.59360 55 ft 93 kts 88°
2026-05-09 11:57 23.04864 114.60278 59 ft 146 kts 88°
2026-05-09 11:58 23.04909 114.61473 420 ft 161 kts 86°
2026-05-09 11:58 23.04979 114.62699 1045 ft 164 kts 85°
2026-05-09 11:58 23.05176 114.63918 1689 ft 165 kts 61°
2026-05-09 11:58 23.06004 114.64819 2073 ft 183 kts 23°
2026-05-09 11:59 23.07332 114.64923 2400 ft 203 kts 342°
2026-05-09 11:59 23.08631 114.64184 2930 ft 215 kts 331°
2026-05-09 11:59 23.09948 114.63380 3709 ft 219 kts 331°
2026-05-09 11:59 23.11292 114.62578 4526 ft 220 kts 331°
2026-05-09 12:00 23.12638 114.61774 5336 ft 222 kts 330°
2026-05-09 12:00 23.13999 114.60963 6138 ft 224 kts 330°
2026-05-09 12:00 23.15370 114.60154 6964 ft 224 kts 330°
2026-05-09 12:00 23.16684 114.59243 7658 ft 227 kts 314°
2026-05-09 12:01 23.17548 114.57816 8361 ft 230 kts 289°
2026-05-09 12:01 23.17741 114.55997 8699 ft 254 kts 263°
2026-05-09 12:01 23.17486 114.54014 9062 ft 276 kts 262°
2026-05-09 12:01 23.17218 114.51917 9725 ft 283 kts 262°
2026-05-09 12:02 23.16954 114.49767 10318 ft 294 kts 263°
2026-05-09 12:02 23.16682 114.47478 10523 ft 317 kts 263°
2026-05-09 12:02 23.16395 114.45022 10785 ft 335 kts 263°
2026-05-09 12:02 23.16099 114.42485 11335 ft 341 kts 263°
2026-05-09 12:03 23.15796 114.39919 11979 ft 344 kts 263°
2026-05-09 12:03 23.15592 114.38206 12405 ft 347 kts 263°
2026-05-09 12:03 23.15281 114.35598 13045 ft 349 kts 263°
2026-05-09 12:03 23.14967 114.32961 13683 ft 352 kts 263°
2026-05-09 12:04 23.14653 114.30319 14254 ft 355 kts 263°
2026-05-09 12:04 23.14337 114.27651 14819 ft 358 kts 263°
2026-05-09 12:04 23.14012 114.24925 15365 ft 360 kts 263°
2026-05-09 12:04 23.13692 114.22249 15923 ft 363 kts 263°
2026-05-09 12:05 23.13398 114.19520 16462 ft 365 kts 267°
2026-05-09 12:05 23.13621 114.16764 16979 ft 369 kts 283°
2026-05-09 12:05 23.14562 114.14121 17504 ft 374 kts 298°
2026-05-09 12:05 23.16141 114.11855 18015 ft 381 kts 314°
2026-05-09 12:06 23.18247 114.10077 18489 ft 387 kts 323°
2026-05-09 12:06 23.20474 114.08421 18933 ft 390 kts 323°
2026-05-09 12:06 23.22719 114.06747 19365 ft 393 kts 323°
2026-05-09 12:06 23.25143 114.05332 19803 ft 401 kts 337°
2026-05-09 12:07 23.27882 114.04670 20194 ft 409 kts 353°
2026-05-09 12:07 23.30748 114.04882 20561 ft 418 kts 10°
2026-05-09 12:07 23.33491 114.06007 20962 ft 427 kts 27°
2026-05-09 12:07 23.35927 114.07892 21348 ft 433 kts 36°
2026-05-09 12:08 23.38309 114.09925 21754 ft 437 kts 36°
2026-05-09 12:08 23.40701 114.11980 22133 ft 440 kts 37°
2026-05-09 12:08 23.43116 114.14057 22524 ft 444 kts 36°
2026-05-09 12:08 23.45552 114.16146 22907 ft 447 kts 36°
2026-05-09 12:09 23.48002 114.18245 23279 ft 451 kts 36°
2026-05-09 12:09 23.50478 114.20366 23648 ft 454 kts 36°
2026-05-09 12:09 23.53000 114.22528 23969 ft 457 kts 36°
2026-05-09 12:10 23.60549 114.28984 24968 ft 463 kts 36°
2026-05-09 12:10 23.63079 114.31158 25318 ft 464 kts 36°
2026-05-09 12:10 23.65626 114.33345 25664 ft 466 kts 35°
2026-05-09 12:11 23.68194 114.35502 26003 ft 467 kts 34°
2026-05-09 12:11 23.70800 114.37636 26341 ft 469 kts 33°
2026-05-09 12:11 23.73424 114.39756 26680 ft 470 kts 33°
2026-05-09 12:11 23.76056 114.41877 27015 ft 471 kts 33°
2026-05-09 12:12 23.78691 114.44014 27331 ft 473 kts 33°
2026-05-09 12:12 23.81332 114.46172 27657 ft 475 kts 33°
2026-05-09 12:12 23.83975 114.48345 27993 ft 477 kts 33°
2026-05-09 12:12 23.86624 114.50531 28334 ft 478 kts 33°
2026-05-09 12:13 23.89284 114.52728 28688 ft 480 kts 33°
2026-05-09 12:13 23.91957 114.54930 29034 ft 482 kts 32°
2026-05-09 12:13 23.94671 114.57166 29365 ft 484 kts 32°
2026-05-09 12:13 23.97332 114.59357 29696 ft 486 kts 32°
2026-05-09 12:14 24.00072 114.61611 30028 ft 488 kts 32°
2026-05-09 12:14 24.02786 114.63846 30350 ft 489 kts 32°
2026-05-09 12:14 24.05490 114.66080 30747 ft 487 kts 32°
2026-05-09 12:14 24.08190 114.68314 31165 ft 486 kts 32°
2026-05-09 12:15 24.10880 114.70542 31574 ft 484 kts 32°
2026-05-09 12:15 24.13555 114.72759 31990 ft 483 kts 31°
2026-05-09 12:15 24.16236 114.74979 32416 ft 482 kts 31°
2026-05-09 12:15 24.18914 114.77196 32847 ft 481 kts 30°
2026-05-09 12:16 24.21587 114.79405 33114 ft 481 kts 30°
2026-05-09 12:16 24.26903 114.83840 33176 ft 481 kts 34°
2026-05-09 12:17 24.31426 114.89366 33177 ft 493 kts 47°
2026-05-09 12:17 24.35600 114.95331 33176 ft 492 kts 46°
2026-05-09 12:18 24.39778 115.01283 33179 ft 494 kts 46°
2026-05-09 12:18 24.43963 115.07254 33179 ft 494 kts 46°
2026-05-09 12:19 24.48145 115.13242 33183 ft 494 kts 46°
2026-05-09 12:19 24.52326 115.19229 33186 ft 494 kts 46°
2026-05-09 12:20 24.56512 115.25231 33189 ft 494 kts 46°
2026-05-09 12:20 24.60691 115.31234 33185 ft 494 kts 46°
2026-05-09 12:21 24.64870 115.37238 33202 ft 495 kts 46°
2026-05-09 12:21 24.69084 115.43294 33189 ft 495 kts 46°
2026-05-09 12:22 24.73300 115.49289 33188 ft 495 kts 46°
2026-05-09 12:22 24.77534 115.55269 33189 ft 496 kts 45°
2026-05-09 12:23 24.81763 115.61261 33195 ft 496 kts 46°
2026-05-09 12:23 24.85990 115.67276 33199 ft 497 kts 46°
2026-05-09 12:24 24.90205 115.73294 33196 ft 497 kts 46°
2026-05-09 12:24 24.94431 115.79338 33191 ft 497 kts 46°
2026-05-09 12:25 24.98650 115.85375 33197 ft 498 kts 46°
2026-05-09 12:25 25.02868 115.91421 33196 ft 497 kts 46°
2026-05-09 12:26 25.07087 115.97481 33209 ft 498 kts 46°
2026-05-09 12:26 25.11311 116.03543 33190 ft 499 kts 46°
2026-05-09 12:27 25.15540 116.09611 33189 ft 500 kts 46°
2026-05-09 12:27 25.19779 116.15711 33191 ft 500 kts 46°
2026-05-09 12:28 25.24002 116.21810 33194 ft 500 kts 46°
2026-05-09 12:28 25.28249 116.27955 33211 ft 500 kts 46°
2026-05-09 12:29 25.32457 116.34027 33187 ft 502 kts 45°
2026-05-09 12:29 25.36723 116.40200 33183 ft 502 kts 46°
2026-05-09 12:30 25.40962 116.46351 33183 ft 503 kts 46°
2026-05-09 12:30 25.47308 116.55588 33191 ft 503 kts 46°
2026-05-09 12:31 25.53666 116.64834 33201 ft 504 kts 45°
2026-05-09 12:32 25.57916 116.70998 33177 ft 504 kts 44°
2026-05-09 12:32 25.62360 116.76988 33183 ft 502 kts 41°
2026-05-09 12:33 25.66923 116.82826 33191 ft 501 kts 41°
2026-05-09 12:33 25.71473 116.88701 33189 ft 502 kts 42°
2026-05-09 12:34 25.75239 116.93664 33196 ft 503 kts 43°
2026-05-09 12:34 25.79727 116.99616 33183 ft 503 kts 43°
2026-05-09 12:35 25.84226 117.05573 33203 ft 503 kts 42°
2026-05-09 12:35 25.88723 117.11524 33205 ft 503 kts 42°
2026-05-09 12:36 25.93221 117.17489 33209 ft 503 kts 42°
2026-05-09 12:36 25.97751 117.23493 33215 ft 504 kts 42°
2026-05-09 12:37 26.02281 117.29434 33216 ft 504 kts 41°
2026-05-09 12:37 26.06812 117.35380 33214 ft 504 kts 42°
2026-05-09 12:38 26.11330 117.41351 33214 ft 504 kts 42°
2026-05-09 12:38 26.15839 117.47331 33241 ft 505 kts 42°
2026-05-09 12:39 26.20350 117.53316 33240 ft 504 kts 42°
2026-05-09 12:39 26.24855 117.59303 33240 ft 504 kts 42°
2026-05-09 12:40 26.29379 117.65308 33240 ft 503 kts 42°
2026-05-09 12:40 26.33874 117.71282 33233 ft 503 kts 42°
2026-05-09 12:41 26.38372 117.77271 33246 ft 503 kts 42°
2026-05-09 12:41 26.42855 117.83247 33243 ft 503 kts 42°
2026-05-09 12:42 26.47358 117.89209 33240 ft 502 kts 42°
2026-05-09 12:42 26.51858 117.95172 33241 ft 502 kts 42°
2026-05-09 12:43 26.55832 118.01673 33236 ft 516 kts 56°
2026-05-09 12:43 26.59121 118.08819 33260 ft 516 kts 56°
2026-05-09 12:44 26.62425 118.15989 33253 ft 515 kts 56°
2026-05-09 12:44 26.65704 118.23094 33254 ft 515 kts 56°
2026-05-09 12:45 26.68990 118.30208 33253 ft 515 kts 56°
2026-05-09 12:45 26.72254 118.37318 33250 ft 514 kts 57°
2026-05-09 12:46 26.75512 118.44434 33275 ft 514 kts 57°
2026-05-09 12:46 26.78777 118.51554 33260 ft 513 kts 57°
2026-05-09 12:47 26.82026 118.58650 33265 ft 512 kts 57°
2026-05-09 12:47 26.85266 118.65748 33254 ft 512 kts 57°
2026-05-09 12:48 26.88500 118.72852 33252 ft 512 kts 57°
2026-05-09 12:48 26.91730 118.79958 33257 ft 512 kts 57°
2026-05-09 12:49 26.94966 118.87078 33270 ft 513 kts 57°
2026-05-09 12:49 26.98207 118.94206 33256 ft 514 kts 57°
2026-05-09 12:50 27.01437 119.01340 33268 ft 513 kts 57°
2026-05-09 12:50 27.04674 119.08531 33278 ft 512 kts 57°
2026-05-09 12:51 27.07886 119.15660 33285 ft 511 kts 57°
2026-05-09 12:51 27.11118 119.22765 33290 ft 511 kts 57°
2026-05-09 12:52 27.14406 119.29947 33278 ft 520 kts 57°
2026-05-09 12:52 27.17699 119.37171 33281 ft 523 kts 57°
2026-05-09 12:53 27.21003 119.44460 33275 ft 523 kts 57°
2026-05-09 12:53 27.24289 119.51749 33281 ft 523 kts 57°
2026-05-09 12:54 27.27582 119.59014 33304 ft 521 kts 57°
2026-05-09 12:54 27.30929 119.66252 33278 ft 524 kts 56°
2026-05-09 12:55 27.34329 119.73583 33245 ft 526 kts 56°
2026-05-09 12:55 27.37711 119.80898 33246 ft 528 kts 56°
2026-05-09 12:56 27.41074 119.88263 33260 ft 529 kts 57°
2026-05-09 12:56 27.44421 119.95639 33266 ft 529 kts 57°
2026-05-09 12:57 27.47781 120.03021 33274 ft 530 kts 56°
2026-05-09 12:57 27.51185 120.10465 33255 ft 532 kts 56°
2026-05-09 12:58 27.54566 120.17885 33253 ft 533 kts 57°
2026-05-09 12:58 27.57942 120.25330 33263 ft 534 kts 57°
2026-05-09 12:59 27.61435 120.32684 33270 ft 527 kts 49°
2026-05-09 12:59 27.63629 120.35943 33271 ft 516 kts 39°
2026-05-09 12:59 27.66148 120.38769 33271 ft 505 kts 31°
2026-05-09 12:59 27.68950 120.41159 33261 ft 493 kts 22°
2026-05-09 13:00 27.71835 120.43229 33267 ft 491 kts 22°
2026-05-09 13:00 27.77597 120.47374 33268 ft 492 kts 22°
2026-05-09 13:01 27.83366 120.51553 33270 ft 492 kts 22°
2026-05-09 13:01 27.89129 120.55733 33284 ft 493 kts 22°
2026-05-09 13:02 27.94906 120.59912 33279 ft 493 kts 22°
2026-05-09 13:02 27.99774 120.63328 33272 ft 485 kts 16°
2026-05-09 13:02 28.02815 120.64835 33271 ft 470 kts
2026-05-09 13:03 28.05919 120.65778 33272 ft 456 kts 358°
2026-05-09 13:03 28.09023 120.66210 33309 ft 445 kts 352°
2026-05-09 13:03 28.12113 120.66499 33303 ft 446 kts 353°
2026-05-09 13:04 28.18284 120.67096 33296 ft 446 kts 353°
2026-05-09 13:04 28.24465 120.67712 33289 ft 445 kts 353°
2026-05-09 13:05 28.30628 120.68317 33276 ft 445 kts 353°
2026-05-09 13:05 28.36798 120.68926 33292 ft 445 kts 353°
2026-05-09 13:06 28.42954 120.69531 33290 ft 444 kts 352°
2026-05-09 13:06 28.49149 120.70143 33283 ft 444 kts 353°
2026-05-09 13:07 28.55311 120.70768 33283 ft 444 kts 353°
2026-05-09 13:07 28.61454 120.71395 33267 ft 443 kts 353°
2026-05-09 13:08 28.67593 120.72013 33251 ft 443 kts 353°
2026-05-09 13:08 28.73744 120.72642 33246 ft 444 kts 353°
2026-05-09 13:08 28.76774 120.72982 33173 ft 432 kts 353°
2026-05-09 13:09 28.79759 120.73327 32675 ft 429 kts 353°
2026-05-09 13:09 28.82716 120.73664 32206 ft 426 kts 354°
2026-05-09 13:09 28.85651 120.73992 31727 ft 422 kts 354°
2026-05-09 13:09 28.88563 120.74308 31251 ft 419 kts 354°
2026-05-09 13:10 28.91500 120.74601 30776 ft 432 kts 354°
2026-05-09 13:10 28.94577 120.74880 30302 ft 444 kts 354°
2026-05-09 13:10 28.97673 120.75165 29784 ft 447 kts 355°
2026-05-09 13:10 29.00769 120.75470 29244 ft 445 kts 355°
2026-05-09 13:11 29.03849 120.75787 28715 ft 443 kts 355°
2026-05-09 13:11 29.06903 120.76108 28222 ft 440 kts 356°
2026-05-09 13:11 29.09942 120.76425 27716 ft 438 kts 357°
2026-05-09 13:11 29.12972 120.76740 27211 ft 435 kts 357°
2026-05-09 13:12 29.15979 120.77046 26720 ft 433 kts 357°
2026-05-09 13:12 29.18971 120.77351 26247 ft 430 kts 357°
2026-05-09 13:12 29.21943 120.77660 25760 ft 427 kts 358°
2026-05-09 13:12 29.24883 120.77967 25297 ft 424 kts 358°
2026-05-09 13:13 29.27853 120.78279 24831 ft 421 kts 358°
2026-05-09 13:13 29.30756 120.78585 24392 ft 418 kts 359°
2026-05-09 13:13 29.33641 120.78889 23950 ft 415 kts 359°
2026-05-09 13:13 29.36510 120.79191 23471 ft 412 kts 359°
2026-05-09 13:14 29.39349 120.79489 22943 ft 409 kts 359°
2026-05-09 13:14 29.42157 120.79785 22427 ft 405 kts 359°
2026-05-09 13:16 29.60976 120.84804 20817 ft 414 kts 36°
2026-05-09 13:16 29.63039 120.87140 20819 ft 420 kts 47°
2026-05-09 13:16 29.64729 120.89879 20818 ft 423 kts 53°
2026-05-09 13:16 29.66345 120.92708 20815 ft 423 kts 53°
2026-05-09 13:17 29.67962 120.95529 20810 ft 423 kts 53°
2026-05-09 13:17 29.69585 120.98351 20816 ft 422 kts 53°
2026-05-09 13:17 29.71202 121.01165 20815 ft 422 kts 53°
2026-05-09 13:17 29.72827 121.03995 20813 ft 422 kts 54°
2026-05-09 13:18 29.74436 121.06802 20821 ft 422 kts 54°
2026-05-09 13:18 29.76046 121.09619 20823 ft 422 kts 54°
2026-05-09 13:18 29.77673 121.12474 20603 ft 419 kts 54°
2026-05-09 13:18 29.79257 121.15259 20303 ft 416 kts 54°
2026-05-09 13:19 29.80846 121.18048 20057 ft 416 kts 54°
2026-05-09 13:19 29.82430 121.20825 19829 ft 414 kts 54°
2026-05-09 13:19 29.84010 121.23594 19597 ft 413 kts 54°
2026-05-09 13:19 29.85582 121.26350 19363 ft 412 kts 54°
2026-05-09 13:20 29.87152 121.29101 19130 ft 410 kts 54°
2026-05-09 13:20 29.88895 121.31681 18908 ft 406 kts 45°
2026-05-09 13:20 29.90938 121.33890 18689 ft 401 kts 36°
2026-05-09 13:20 29.93227 121.35701 18365 ft 396 kts 27°
2026-05-09 13:21 29.95636 121.37212 17967 ft 393 kts 25°
2026-05-09 13:21 29.98030 121.38704 17582 ft 390 kts 25°
2026-05-09 13:21 30.00408 121.40191 17198 ft 387 kts 25°
2026-05-09 13:21 30.02764 121.41669 16818 ft 383 kts 26°
2026-05-09 13:22 30.05080 121.43125 16442 ft 375 kts 26°
2026-05-09 13:22 30.07381 121.44570 16067 ft 368 kts 26°
2026-05-09 13:22 30.09611 121.45966 15690 ft 362 kts 25°
2026-05-09 13:23 30.18200 121.51345 14285 ft 343 kts 26°
2026-05-09 13:23 30.20285 121.52658 13946 ft 340 kts 27°
2026-05-09 13:24 30.22353 121.53962 13562 ft 337 kts 27°
2026-05-09 13:24 30.24401 121.55254 13171 ft 335 kts 27°
2026-05-09 13:24 30.26441 121.56539 12791 ft 333 kts 27°
2026-05-09 13:24 30.28462 121.57833 12416 ft 331 kts 27°
2026-05-09 13:25 30.30469 121.59132 12046 ft 330 kts 27°
2026-05-09 13:25 30.32466 121.60429 11675 ft 328 kts 28°
2026-05-09 13:25 30.36443 121.63016 10943 ft 324 kts 28°
2026-05-09 13:26 30.38389 121.64318 10582 ft 323 kts 30°
2026-05-09 13:26 30.40317 121.65662 10249 ft 322 kts 30°
2026-05-09 13:26 30.42227 121.67016 10020 ft 322 kts 31°
2026-05-09 13:26 30.44119 121.68362 9823 ft 313 kts 30°
2026-05-09 13:27 30.45935 121.69655 9795 ft 301 kts 31°
2026-05-09 13:27 30.47707 121.70913 9801 ft 299 kts 30°
2026-05-09 13:27 30.49487 121.72169 9802 ft 298 kts 30°
2026-05-09 13:27 30.51267 121.73422 9802 ft 300 kts 30°
2026-05-09 13:28 30.53048 121.74673 9810 ft 299 kts 31°
2026-05-09 13:28 30.54827 121.75925 9808 ft 299 kts 31°
2026-05-09 13:28 30.56027 121.76768 9807 ft 298 kts 30°
2026-05-09 13:28 30.57923 121.77728 9808 ft 298 kts 15°
2026-05-09 13:29 30.59941 121.78292 9808 ft 298 kts 12°
2026-05-09 13:29 30.61963 121.78836 9642 ft 300 kts 12°
2026-05-09 13:29 30.63993 121.79383 9307 ft 299 kts 12°
2026-05-09 13:29 30.66012 121.79928 9038 ft 297 kts 13°
2026-05-09 13:30 30.68014 121.80469 8796 ft 294 kts 13°
2026-05-09 13:30 30.70011 121.81010 8542 ft 295 kts 13°
2026-05-09 13:30 30.71999 121.81551 8297 ft 292 kts 13°
2026-05-09 13:30 30.73996 121.82095 8042 ft 291 kts 13°
2026-05-09 13:31 30.75944 121.82627 7792 ft 291 kts 14°
2026-05-09 13:31 30.77933 121.83173 7605 ft 289 kts 14°
2026-05-09 13:31 30.79919 121.83716 7476 ft 291 kts 14°
2026-05-09 13:31 30.81862 121.84246 7363 ft 290 kts 14°